Regional Weather Roundup
Issued by NWS

Home | Current Version | Previous Version | Graphics & Text | Print | Product List | Glossary On
Versions: 1 2 3 4 5 6 7 8 9 10 11 12 13 14 15 16 17 18 19 20 21 22 23 24 25 26 27 28 29 30 31 32 33 34 35 36 37 38 39 40 41 42 43 44 45 46 47 48 49 50
000
ASUS43 KLSX 311707
RWRMO

WEATHER SUMMARY FOR MISSOURI
NATIONAL WEATHER SERVICE SPRINGFIELD MO
1200 PM CDT FRI JUL 31 2015

NOTE: "FAIR" INDICATES FEW OR NO CLOUDS BELOW 12,000 FEET WITH NO
       SIGNIFICANT WEATHER AND/OR OBSTRUCTIONS TO VISIBILITY.
       CURRENT SKY AND/OR WEATHER CONDITIONS ARE NOT AVAILABLE FOR
       CHILLICOTHE AND FARMINGTON.

MOZ001>031-035>038-043-044-053-054-311800-
...NORTHERN AND WESTERN MISSOURI...

CITY           SKY/WX    TMP DP  RH WIND       PRES   REMARKS
KANSAS CTY INT MOSUNNY   82  66  58 W3        30.16F
KANSAS C DTWN  SUNNY     85  62  46 W5        30.14F
LEE`S SUMMIT   SUNNY     84  64  50 SW7       30.17S
ST JOSEPH      SUNNY     83  72  69 SW6       30.15R
CHILLICOTHE      N/A     85  68  56 VRB3      30.15S
KIRKSVILLE     MOSUNNY   84  61  45 W8        30.15F

$$
MOZ066>068-077>081-088>096-101>105-311800-
...SOUTHWEST MISSOURI...

CITY           SKY/WX    TMP DP  RH WIND       PRES   REMARKS
SPRINGFIELD    SUNNY     86  58  38 SW7       30.18S
JOPLIN         SUNNY     87  63  44 S6        30.17F

$$
MOZ032>034-039>042-045>050-055>058-069>072-311800-
...CENTRAL MISSOURI...

CITY           SKY/WX    TMP DP  RH WIND       PRES   REMARKS
COLUMBIA       SUNNY     85  67  54 SW8       30.15S
JEFFERSON CITY SUNNY     86  64  47 W5        30.13F
ROLLA          SUNNY     85  63  47 N5        30.16S
SEDALIA        SUNNY     86  62  44 NW5       30.17F
WHITEMAN AFB   MOSUNNY   86  61  41 SW3       30.15F
WARRENSBURG    MOSUNNY   84  63  48 SW6       30.15F
OSAGE BEACH    SUNNY     84  63  48 W3        30.17S

$$
MOZ051-052-059>065-311800-
...EAST CENTRAL MISSOURI...

CITY           SKY/WX    TMP DP  RH WIND       PRES   REMARKS
ST LOUIS INTL  SUNNY     90  66  45 NW8       30.12F HX  92
SPIRIT OF STL  SUNNY     88  66  48 NW5       30.11F HX  90
ST CHARLES     SUNNY     88  67  49 VRB7      30.10F HX  91

$$
MOZ072>076-082>087-097>100-106>115-311800-
...SOUTH CENTRAL AND SOUTHEAST MISSOURI...

CITY           SKY/WX    TMP DP  RH WIND       PRES   REMARKS
CAPE GIRARDEAU SUNNY     87  67  51 NE10      30.11F HX  90
FARMINGTON     SUNNY     84  63  48 N7        30.19S
POPLAR BLUFF   SUNNY     87  66  49 NE5       30.11F
WEST PLAINS    SUNNY     86  59  39 VRB6      30.18F

$$


USA.gov is the U.S. government's official web portal to all federal, state and local government web resources and services.